Location: Chassagnes
(44.4047°N, 4.1657°E)
Time: 13:09:05
(UTC+00:00)

Cosmos 2082 - Pass Details

Date: 27 October 2020
Orbit: 832 x 857 km, 71.0° (Epoch: 23 November)

Event Time Altitude Azimuth Distance (km) Brightness Sun altitude
Rises 18:39:48 0° 334° (NNW) 3,436 7.3 -22.1°
Reaches altitude 10° 18:42:16 10° 335° (NNW) 2,497 6.5 -22.5°
Maximum altitude 18:48:02 87° 64° (ENE) 864 3.6 -23.5°
Enters shadow 18:50:27 37° 153° (SSE) 1,308 4.4 -24.0°
